Weather History for Green Bay, WI

Change the Weather History Date:

Sunday, January 12, 2014

  Actual Average Record
Temperature  
Mean Temperature 33 °F 16 °F  
Max Temperature 39 °F 24 °F 48 °F (1928)
Min Temperature 26 °F 9 °F -25 °F (1912)
Degree Days  
Heating Degree Days 32 49  
Month to date heating degree days 687 578  
Since 1 July heating degree days 3842 3668  
Cooling Degree Days 0 0  
Month to date cooling degree days 0 0  
Year to date cooling degree days 0 0  
Moisture  
Dew Point 27 °F    
Average Humidity 78    
Maximum Humidity 92    
Minimum Humidity 64    
Precipitation  
Precipitation T in 0.03 in 1.00 in (1890)
Month to date precipitation 0.31 0.46  
Year to date precipitation 0.31 0.46  
Snow  
Snow T in 0.40 in 11.50 in (1890)
Month to date snowfall T 4.8  
Since 1 July snowfall 27.6 22.1  
Snow Depth 7.00 in    
Sea Level Pressure  
Sea Level Pressure 29.63 in    
Wind  
Wind Speed 12 mph (SSW)    
Max Wind Speed 22 mph    
Max Gust Speed 30 mph    
Visibility 9 miles    
Events      
T = Trace of Precipitation, MM = Missing Value Source: NWS Daily Summary

Daily Weather History Graph

Daily Weather History Graph

Search for Another Location

Airport:

Trip Planner

Search our weather history database for the weather conditions in past years. The results will help you decide how hot, cold, wet, or windy it might be!

Date:

Astronomy

Jan. 12, 2014 Rise Set
Actual Time 7:26 AM CST 4:35 PM CST
Civil Twilight 6:54 AM CST 5:07 PM CST
Nautical Twilight 6:18 AM CST 5:44 PM CST
Astronomical Twilight 5:43 AM CST 6:19 PM CST
Moon 2:03 PM CST (1/12) 4:24 AM CST (1/12)
Length of Visible Light 10h 13m
Length of Day
9h 08m
Waxing Gibbous, 90% of the Moon is Illuminated
Jan 12
Waxing Gibbous
Jan 15
Full
Jan 23
Last Quarter
Jan 30
New
Feb 6
First Quarter

Hourly Weather History & Observations

Time (CST) Temp. Windchill Dew Point Humidity Pressure Visibility Wind Dir Wind Speed Gust Speed Precip Events Conditions
12:53 AM 30.0 °F 19.1 °F 25.0 °F 82% 29.70 in 10.0 mi WSW 15.0 mph - N/A   Overcast
1:53 AM 28.9 °F 19.8 °F 25.0 °F 85% 29.72 in 9.0 mi WSW 10.4 mph - N/A   Overcast
2:12 AM 28.9 °F 19.2 °F 25.0 °F 85% 29.69 in 8.0 mi WSW 11.5 mph - N/A   Overcast
2:53 AM 28.9 °F 18.6 °F 25.0 °F 85% 29.73 in 7.0 mi SW 12.7 mph 18.4 mph N/A   Overcast
3:53 AM 28.0 °F 17.0 °F 24.1 °F 85% 29.73 in 7.0 mi WSW 13.8 mph 21.9 mph N/A   Overcast
4:53 AM 28.0 °F 18.1 °F 25.0 °F 88% 29.74 in 7.0 mi SW 11.5 mph - N/A   Overcast
5:53 AM 28.0 °F 17.5 °F 24.1 °F 85% 29.73 in 8.0 mi SSW 12.7 mph 19.6 mph N/A   Overcast
6:24 AM 27.0 °F 18.0 °F 24.1 °F 89% 29.70 in 8.0 mi SSW 9.2 mph 18.4 mph N/A   Overcast
6:53 AM 27.0 °F 17.3 °F 24.1 °F 89% 29.71 in 7.0 mi South 10.4 mph - N/A   Overcast
7:53 AM 27.0 °F 18.7 °F 24.1 °F 89% 29.72 in 3.0 mi South 8.1 mph - N/A   Overcast
8:42 AM 27.0 °F 17.3 °F 24.1 °F 89% 29.70 in 5.0 mi SSW 10.4 mph - N/A   Overcast
8:53 AM 27.0 °F 18.0 °F 24.1 °F 89% 29.72 in 5.0 mi South 9.2 mph - N/A   Overcast
9:53 AM 28.9 °F 19.8 °F 25.0 °F 85% 29.69 in 8.0 mi South 10.4 mph - N/A   Mostly Cloudy
10:53 AM 30.0 °F 20.5 °F 26.1 °F 85% 29.67 in 9.0 mi South 11.5 mph - N/A   Scattered Clouds
11:53 AM 34.0 °F 23.4 °F 27.0 °F 75% 29.58 in 10.0 mi South 17.3 mph - N/A   Clear
12:53 PM 36.0 °F 27.5 °F 28.0 °F 73% 29.55 in 10.0 mi South 12.7 mph - N/A   Clear
1:53 PM 37.9 °F 27.9 °F 27.0 °F 65% 29.52 in 10.0 mi South 19.6 mph 27.6 mph N/A   Clear
2:53 PM 37.0 °F 28.9 °F 28.0 °F 70% 29.53 in 10.0 mi South 12.7 mph - N/A   Clear
3:53 PM 37.9 °F 29.6 °F 28.0 °F 68% 29.54 in 10.0 mi South 13.8 mph - N/A   Clear
4:53 PM 37.9 °F 29.2 °F 28.9 °F 70% 29.52 in 10.0 mi South 15.0 mph - N/A   Clear
5:53 PM 37.9 °F 29.6 °F 28.9 °F 70% 29.53 in 10.0 mi SSW 13.8 mph 24.2 mph N/A   Clear
6:53 PM 37.0 °F 29.3 °F 30.0 °F 76% 29.55 in 10.0 mi SSW 11.5 mph - N/A   Clear
7:53 PM 37.0 °F 29.8 °F 30.0 °F 76% 29.55 in 10.0 mi SSW 10.4 mph - N/A   Clear
8:53 PM 37.0 °F 29.3 °F 30.0 °F 76% 29.53 in 10.0 mi SSW 11.5 mph - N/A   Clear
9:53 PM 36.0 °F 29.0 °F 30.9 °F 82% 29.54 in 10.0 mi SSW 9.2 mph - N/A   Mostly Cloudy
10:53 PM 36.0 °F 29.0 °F 30.9 °F 82% 29.54 in 10.0 mi SSW 9.2 mph - 0.00 in   Overcast
11:53 PM 36.0 °F 29.6 °F 32.0 °F 86% 29.51 in 10.0 mi SSW 8.1 mph - N/A   Overcast